Date String (YYYY-MM-DD hh:mm:ss) UTC,Instrument flags,Ambient pressure (hPa),Sample flow (lpm),Bypass flow (lpm),Sample temperature (°C),Ambient temperature (°C),ASC tube jacket temperature (°C),LED temperature (°C),Box temperature (°C),Sample RH (%),Span deviation,Mass concentration (μg/m³),Mass concentration (μg/m³),Mass concentration (μg/m³)
DateTimeUTC,F1_M11,P_M11,Q1_M11,Q2_M11,T1_M11,T2_M11,T3_M11,T4_M11,T5_M11,U1_M11,ZSPAN_M11,X0_M11,X2_M11,X1_M11
2022-01-30 14:00:00,,0826.2,4.99,0.00,22.4,21.7,00.0,31.4,24.1,04.0,0000.0,0000.86,0000.75,0000.71
2022-01-30 14:01:00,,0826.2,5.00,0.00,22.3,21.6,00.0,31.4,24.1,04.0,0000.0,0000.81,0000.71,0000.69
2022-01-30 14:02:00,,0826.1,5.00,0.00,22.3,21.6,00.0,31.4,24.0,04.0,0000.0,0000.82,0000.68,0000.66
2022-01-30 14:03:00,,0826.1,4.98,0.00,22.3,21.7,00.0,31.4,24.0,04.0,0000.0,0000.90,0000.67,0000.64
2022-01-30 14:04:00,,0826.2,5.01,0.00,22.4,22.2,00.0,31.4,24.2,04.0,0000.0,0000.89,0000.66,0000.63
2022-01-30 14:05:00,,0826.2,5.00,0.00,22.5,23.0,00.0,31.4,24.4,03.9,0000.0,0000.92,0000.67,0000.62
2022-01-30 14:06:00,,0826.1,5.01,0.00,22.6,23.2,00.0,31.5,24.6,03.9,0000.0,0000.95,0000.69,0000.62
2022-01-30 14:07:00,,0826.1,5.00,0.00,22.7,23.0,00.0,31.5,24.6,03.9,0000.0,0001.00,0000.70,0000.62
2022-01-30 14:08:00,,0826.1,4.99,0.00,22.7,22.8,00.0,31.5,24.6,03.9,0000.0,0001.04,0000.71,0000.62
2022-01-30 14:09:00,,0826.1,5.01,0.00,22.7,22.6,00.0,31.5,24.5,03.9,0000.0,0001.11,0000.72,0000.61
2022-01-30 14:10:00,,0826.1,4.99,0.00,22.7,22.5,00.0,31.5,24.5,03.9,0000.0,0001.12,0000.73,0000.62
2022-01-30 14:11:00,,0826.2,5.00,0.00,22.7,22.4,00.0,31.5,24.4,03.9,0000.0,0001.17,0000.76,0000.64
2022-01-30 14:12:00,,0826.1,4.99,0.00,22.6,22.2,00.0,31.5,24.4,03.9,0000.0,0001.20,0000.77,0000.65
2022-01-30 14:13:00,,0826.1,5.00,0.00,22.6,22.2,00.0,31.5,24.4,03.9,0000.0,0001.23,0000.80,0000.67
2022-01-30 14:14:00,,0826.1,5.00,0.00,22.6,22.1,00.0,31.5,24.3,03.9,0000.0,0001.10,0000.80,0000.69
2022-01-30 14:15:00,,0826.1,5.00,0.00,22.6,22.0,00.0,31.5,24.3,03.9,0000.0,0001.11,0000.80,0000.69
2022-01-30 14:16:00,,0826.1,5.00,0.00,22.6,21.9,00.0,31.5,24.3,03.9,0000.0,0001.10,0000.79,0000.68
2022-01-30 14:17:00,,0826.1,5.00,0.00,22.5,21.9,00.0,31.5,24.2,03.9,0000.0,0001.06,0000.76,0000.66
2022-01-30 14:18:00,,0826.0,5.00,0.00,22.5,21.8,00.0,31.5,24.2,04.0,0000.0,0000.98,0000.72,0000.63
2022-01-30 14:19:00,,0826.0,5.00,0.00,22.5,21.8,00.0,31.5,24.2,04.0,0000.0,0000.94,0000.70,0000.62
2022-01-30 14:20:00,,0826.0,5.01,0.00,22.5,21.8,00.0,31.5,24.2,04.0,0000.0,0000.82,0000.67,0000.62
2022-01-30 14:21:00,,0826.0,5.00,0.00,22.4,21.7,00.0,31.5,24.2,03.9,0000.0,0000.81,0000.67,0000.61
2022-01-30 14:22:00,,0826.0,5.00,0.00,22.4,21.7,00.0,31.5,24.1,03.9,0000.0,0000.78,0000.65,0000.60
2022-01-30 14:23:00,,0826.0,4.98,0.00,22.4,21.7,00.0,31.5,24.1,04.0,0000.0,0000.75,0000.64,0000.60
2022-01-30 14:24:00,,0826.0,5.00,0.00,22.4,21.7,00.0,31.4,24.1,04.1,0000.0,0000.78,0000.65,0000.60
2022-01-30 14:25:00,,0826.0,5.00,0.00,22.4,21.6,00.0,31.4,24.1,04.1,0000.0,0000.88,0000.67,0000.60
2022-01-30 14:26:00,,0826.1,5.00,0.00,22.3,21.6,00.0,31.4,24.0,04.1,0000.0,0000.89,0000.67,0000.60
2022-01-30 14:27:00,,0826.1,5.01,0.00,22.3,21.6,00.0,31.4,24.0,04.0,0000.0,0000.89,0000.68,0000.62
2022-01-30 14:28:00,,0826.1,5.01,0.00,22.4,22.0,00.0,31.4,24.1,04.0,0000.0,0000.94,0000.71,0000.65
2022-01-30 14:29:00,,0826.2,5.00,0.00,22.5,22.8,00.0,31.4,24.4,03.9,0000.0,0001.00,0000.75,0000.67
2022-01-30 14:30:00,,0826.1,4.99,0.00,22.6,23.5,00.0,31.5,24.6,04.0,0000.0,0001.06,0000.79,0000.69
2022-01-30 14:31:00,,0826.1,5.00,0.00,22.7,23.3,00.0,31.5,24.7,04.0,0000.0,0001.12,0000.82,0000.71
2022-01-30 14:32:00,,0826.1,4.99,0.00,22.7,23.1,00.0,31.5,24.7,03.9,0000.0,0001.16,0000.83,0000.72
2022-01-30 14:33:00,,0826.1,5.00,0.00,22.7,22.9,00.0,31.6,24.6,03.9,0000.0,0001.19,0000.86,0000.74
2022-01-30 14:34:00,,0826.1,5.00,0.00,22.7,22.6,00.0,31.6,24.5,04.1,0000.0,0001.23,0000.87,0000.74
2022-01-30 14:35:00,,0826.1,5.00,0.00,22.7,22.5,00.0,31.6,24.4,04.1,0000.0,0001.22,0000.87,0000.73
2022-01-30 14:36:00,,0826.1,5.01,0.00,22.7,22.3,00.0,31.6,24.4,04.1,0000.0,0001.12,0000.84,0000.73
2022-01-30 14:37:00,,0826.2,4.99,0.00,22.7,22.2,00.0,31.6,24.4,04.1,0000.0,0001.20,0000.84,0000.72
2022-01-30 14:38:00,,0826.2,5.01,0.00,22.6,22.1,00.0,31.6,24.3,04.1,0000.0,0001.19,0000.84,0000.72
2022-01-30 14:39:00,,0826.2,5.01,0.00,22.6,22.0,00.0,31.6,24.3,04.1,0000.0,0001.18,0000.84,0000.72
2022-01-30 14:40:00,,0826.1,5.00,0.00,22.6,21.9,00.0,31.6,24.2,04.1,0000.0,0001.17,0000.84,0000.72
2022-01-30 14:41:00,,0826.1,5.00,0.00,22.5,21.9,00.0,31.6,24.2,04.1,0000.0,0001.19,0000.83,0000.72
2022-01-30 14:42:00,,0826.1,5.01,0.00,22.5,21.8,00.0,31.5,24.2,04.1,0000.0,0001.22,0000.84,0000.71
2022-01-30 14:43:00,,0826.1,4.99,0.00,22.4,21.7,00.0,31.5,24.1,04.2,0000.0,0001.20,0000.83,0000.70
2022-01-30 14:44:00,,0826.1,5.02,0.00,22.4,21.7,00.0,31.5,24.0,04.2,0000.0,0001.24,0000.84,0000.69
2022-01-30 14:45:00,,0826.1,4.99,0.00,22.3,21.6,00.0,31.5,24.0,04.4,0000.0,0001.21,0000.82,0000.69
2022-01-30 14:46:00,,0826.1,5.00,0.00,22.3,21.6,00.0,31.5,24.0,04.3,0000.0,0001.17,0000.81,0000.69
2022-01-30 14:47:00,,0826.1,5.01,0.00,22.3,21.5,00.0,31.4,23.9,04.2,0000.0,0001.17,0000.81,0000.69
2022-01-30 14:48:00,,0826.1,5.00,0.00,22.3,21.5,00.0,31.4,24.0,04.3,0000.0,0001.09,0000.81,0000.70
2022-01-30 14:49:00,,0826.1,4.99,0.00,22.3,21.5,00.0,31.4,23.9,04.4,0000.0,0001.06,0000.80,0000.69
2022-01-30 14:50:00,,0826.1,5.02,0.00,22.2,21.5,00.0,31.4,23.9,04.6,0000.0,0001.09,0000.80,0000.68
2022-01-30 14:51:00,,0826.1,4.99,0.00,22.2,21.5,00.0,31.4,23.9,04.5,0000.0,0001.11,0000.81,0000.69
2022-01-30 14:52:00,,0826.1,5.01,0.00,22.2,21.4,00.0,31.4,23.8,04.4,0000.0,0001.12,0000.81,0000.68
2022-01-30 14:53:00,,0826.1,4.99,0.00,22.2,21.4,00.0,31.3,23.8,04.4,0000.0,0001.02,0000.78,0000.68
2022-01-30 14:54:00,,0826.1,5.00,0.00,22.2,21.4,00.0,31.3,23.8,04.3,0000.0,0001.07,0000.81,0000.69
2022-01-30 14:55:00,,0826.1,5.01,0.00,22.2,21.8,00.0,31.3,23.9,04.2,0000.0,0001.07,0000.82,0000.69
2022-01-30 14:56:00,,0826.1,4.99,0.00,22.3,22.8,00.0,31.3,24.2,04.1,0000.0,0001.05,0000.81,0000.69
2022-01-30 14:57:00,,0826.1,5.01,0.00,22.5,23.3,00.0,31.4,24.4,04.1,0000.0,0001.04,0000.81,0000.69
2022-01-30 14:58:00,,0826.1,5.01,0.00,22.6,23.1,00.0,31.4,24.5,04.1,0000.0,0001.04,0000.81,0000.68
2022-01-30 14:59:00,,0826.1,4.99,0.00,22.6,22.9,00.0,31.4,24.5,04.1,0000.0,0001.02,0000.80,0000.69
